Arlington, TX

7:49 PM CDT on May 21, 2018 (GMT -0500)
Arlington Municipal

Weather History for KGKY - October, 2013

Change the Weather History Date:

Sunday, October 13, 2013

  Actual Average (KRBD) Record (KRBD)
Temperature  
Mean Temperature 70 °F -  
Max Temperature 75 °F 76 °F 91 °F (1999)
Min Temperature 66 °F 56 °F 46 °F (2006)
Cooling Degree Days 6    
Growing Degree Days 20 (Base 50)    
Moisture  
Dew Point 66 °F    
Average Humidity 83    
Maximum Humidity 93    
Minimum Humidity 73    
Precipitation  
Precipitation 0.01 in - - ()
Sea Level Pressure  
Sea Level Pressure 30.13 in    
Wind  
Wind Speed 4 mph (East)    
Max Wind Speed 13 mph    
Max Gust Speed -    
Visibility 10 miles    
Events Rain    
Averages and records for this station are not official NWS values.
T = Trace of Precipitation, MM = Missing Value Source: NWS Daily Summary

Daily Weather History Graph

Daily Weather History Graph

Search for Another Location

Airport or City:

Astronomy

Oct. 13, 2013 Rise Set
Actual Time 7:31 AM CDT 6:57 PM CDT
Civil Twilight 7:06 AM CDT 7:22 PM CDT
Nautical Twilight 6:37 AM CDT 7:50 PM CDT
Astronomical Twilight 6:09 AM CDT 8:19 PM CDT
Moon 3:34 PM CDT (10/13) 1:59 AM CDT (10/13)
Length of Visible Light 12h 15m
Length of Day
11h 26m
Waxing Gibbous, 69% of the Moon is Illuminated
Oct 13
Waxing Gibbous
Oct 18
Full
Oct 26
Last Quarter
Nov 3
New
Nov 9
First Quarter

Hourly Weather History & Observations

Time (CDT) Temp. Dew Point Humidity Pressure Visibility Wind Dir Wind Speed Gust Speed Precip Events Conditions
12:53 AM 68.0 °F 64.9 °F 90% 30.06 in 10.0 mi SE 3.5 mph - N/A   Clear
1:53 AM 68.0 °F 64.9 °F 90% 30.06 in 10.0 mi Calm Calm - 0.00 in Rain Light Rain
2:18 AM 69.8 °F 64.4 °F 83% 30.07 in 10.0 mi Calm Calm - 0.00 in   Mostly Cloudy
2:53 AM 66.9 °F 64.9 °F 93% 30.07 in 10.0 mi SE 3.5 mph - 0.00 in   Mostly Cloudy
3:53 AM 69.1 °F 64.9 °F 87% 30.08 in 10.0 mi Calm Calm - N/A   Overcast
4:16 AM 69.8 °F 64.4 °F 83% 30.10 in 10.0 mi Calm Calm - N/A   Overcast
4:53 AM 70.0 °F 64.9 °F 84% 30.08 in 10.0 mi Calm Calm - N/A   Mostly Cloudy
5:53 AM 66.9 °F 64.0 °F 90% 30.07 in 10.0 mi Calm Calm - N/A   Clear
6:30 AM 69.8 °F 64.4 °F 83% 30.12 in 10.0 mi Calm Calm - N/A   Mostly Cloudy
6:53 AM 69.1 °F 64.9 °F 87% 30.11 in 10.0 mi NNE 3.5 mph - N/A   Overcast
7:20 AM 69.8 °F 66.2 °F 88% 30.13 in 10.0 mi NE 5.8 mph - N/A   Overcast
7:53 AM 69.1 °F 66.0 °F 90% 30.13 in 10.0 mi East 5.8 mph - N/A   Overcast
8:14 AM 69.8 °F 66.2 °F 88% 30.16 in 10.0 mi East 3.5 mph - N/A   Overcast
8:53 AM 69.1 °F 66.9 °F 93% 30.17 in 10.0 mi East 4.6 mph - N/A   Overcast
9:53 AM 71.1 °F 66.0 °F 84% 30.19 in 10.0 mi East 6.9 mph - N/A   Overcast
10:31 AM 71.6 °F 66.2 °F 83% 30.21 in 10.0 mi East 5.8 mph - N/A   Overcast
10:53 AM 72.0 °F 66.0 °F 81% 30.20 in 10.0 mi ESE 8.1 mph - N/A   Overcast
11:53 AM 73.0 °F 66.0 °F 79% 30.19 in 10.0 mi East 4.6 mph - N/A   Overcast
12:06 PM 73.4 °F 66.2 °F 78% 30.21 in 10.0 mi East 5.8 mph - N/A   Overcast
12:13 PM 73.4 °F 66.2 °F 78% 30.21 in 10.0 mi East 4.6 mph - N/A   Overcast
12:29 PM 75.2 °F 66.2 °F 73% 30.19 in 10.0 mi East 5.8 mph - N/A   Mostly Cloudy
12:53 PM 75.0 °F 66.9 °F 76% 30.16 in 10.0 mi NNE 9.2 mph - N/A   Overcast
1:53 PM 73.9 °F 68.0 °F 82% 30.14 in 10.0 mi East 11.5 mph - N/A   Overcast
2:53 PM 73.0 °F 68.0 °F 84% 30.12 in 9.0 mi East 6.9 mph - 0.00 in Rain Light Rain
3:19 PM 73.4 °F 68.0 °F 83% 30.12 in 10.0 mi East 11.5 mph - 0.00 in   Mostly Cloudy
3:27 PM 73.4 °F 68.0 °F 83% 30.12 in 10.0 mi East 12.7 mph - 0.00 in   Mostly Cloudy
3:53 PM 73.9 °F 66.9 °F 79% 30.09 in 10.0 mi ESE 10.4 mph - 0.00 in   Scattered Clouds
4:17 PM 73.4 °F 66.2 °F 78% 30.12 in 10.0 mi East 6.9 mph - N/A   Mostly Cloudy
4:53 PM 73.9 °F 66.9 °F 79% 30.11 in 10.0 mi East 4.6 mph - N/A   Overcast
5:53 PM 73.9 °F 68.0 °F 82% 30.10 in 10.0 mi ESE 6.9 mph - N/A   Overcast
6:24 PM 73.4 °F 66.2 °F 78% 30.13 in 10.0 mi East 8.1 mph - N/A   Overcast
6:53 PM 73.0 °F 66.9 °F 81% 30.12 in 10.0 mi ENE 8.1 mph - N/A   Partly Cloudy
7:53 PM 73.0 °F 66.9 °F 81% 30.14 in 10.0 mi ENE 8.1 mph - N/A   Overcast
8:44 PM 71.6 °F 66.2 °F 83% 30.17 in 10.0 mi East 10.4 mph - N/A   Overcast
8:53 PM 72.0 °F 66.0 °F 81% 30.15 in 10.0 mi East 9.2 mph - N/A   Overcast
9:53 PM 72.0 °F 66.0 °F 81% 30.16 in 10.0 mi East 6.9 mph - N/A   Mostly Cloudy
10:53 PM 71.1 °F 66.0 °F 84% 30.14 in 10.0 mi East 6.9 mph - N/A   Scattered Clouds
11:53 PM 70.0 °F 66.9 °F 90% 30.13 in 8.0 mi East 6.9 mph - 0.01 in Rain Light Rain